Weather History for KALB - October, 2014

Change the Weather History Date:

Thursday, October 23, 2014

  Actual Average Record
Temperature  
Mean Temperature 49 °F 47 °F  
Max Temperature 51 °F 57 °F 81 °F (1947)
Min Temperature 46 °F 37 °F 20 °F (1969)
Degree Days  
Heating Degree Days 16 18  
Month to date heating degree days 218 325  
Since 1 July heating degree days 348 492  
Cooling Degree Days 0 0  
Month to date cooling degree days 18 0  
Year to date cooling degree days 659 594  
Moisture  
Dew Point 44 °F    
Average Humidity 87    
Maximum Humidity 93    
Minimum Humidity 80    
Precipitation  
Precipitation 1.41 in 0.12 in 1.67 in (1990)
Month to date precipitation 3.54 2.77  
Year to date precipitation 31.21 32.22  
Sea Level Pressure  
Sea Level Pressure 29.86 in    
Wind  
Wind Speed 9 mph (North)    
Max Wind Speed 20 mph    
Max Gust Speed 25 mph    
Visibility 8 miles    
Events Rain    
T = Trace of Precipitation, MM = Missing Value Source: NWS Daily Summary

Daily Weather History Graph

Daily Weather History Graph

Search for Another Location

Airport or City:

Trip Planner

Search our weather history database for the weather conditions in past years. The results will help you decide how hot, cold, wet, or windy it might be!

Date:

Astronomy

Oct. 23, 2014 Rise Set
Actual Time 7:18 AM EDT 6:00 PM EDT
Civil Twilight 6:49 AM EDT 6:29 PM EDT
Nautical Twilight 6:16 AM EDT 7:02 PM EDT
Astronomical Twilight 5:43 AM EDT 7:34 PM EDT
Moon 6:54 AM EDT (10/23) 6:00 PM EDT (10/23)
Length of Visible Light 11h 40m
Length of Day
10h 42m
Waning Crescent, 0% of the Moon is Illuminated
Oct 23
Waning Crescent
Oct 23
New
Oct 30
First Quarter
Nov 6
Full
Nov 14
Last Quarter

Hourly Weather History & Observations

Time (EDT) Temp. Windchill Dew Point Humidity Pressure Visibility Wind Dir Wind Speed Gust Speed Precip Events Conditions
12:51 AM 52.0 °F - 42.1 °F 69% 29.93 in 10.0 mi NNE 13.8 mph 23.0 mph 0.00 in Rain Light Rain
1:51 AM 48.9 °F - 43.0 °F 80% 29.91 in 6.0 mi North 12.7 mph 20.7 mph 0.03 in Rain Rain
2:51 AM 48.0 °F - 44.1 °F 86% 29.91 in 5.0 mi North 9.2 mph - 0.12 in Rain Rain
3:51 AM 48.0 °F - 44.1 °F 86% 29.90 in 5.0 mi North 8.1 mph - 0.16 in Rain Rain
4:51 AM 46.9 °F - 44.1 °F 90% 29.87 in 9.0 mi North 11.5 mph - 0.12 in Rain Light Rain
5:51 AM 46.9 °F - 43.0 °F 86% 29.88 in 5.0 mi North 11.5 mph - 0.04 in Rain Rain
6:10 AM 46.0 °F 41.4 °F 43.0 °F 89% 29.86 in 3.0 mi North 9.2 mph 21.9 mph 0.12 in Rain Rain
6:32 AM 46.0 °F 40.6 °F 43.0 °F 89% 29.86 in 5.0 mi North 11.5 mph - 0.15 in Rain Light Rain
6:51 AM 46.0 °F 41.9 °F 43.0 °F 89% 29.87 in 5.0 mi NNE 8.1 mph - 0.18 in Rain Light Rain
7:51 AM 46.0 °F 41.9 °F 43.0 °F 89% 29.88 in 4.0 mi North 8.1 mph - 0.16 in Rain Rain
8:51 AM 46.0 °F 41.4 °F 43.0 °F 89% 29.87 in 6.0 mi NNE 9.2 mph - 0.10 in Rain Light Rain
9:48 AM 46.4 °F 42.9 °F 42.8 °F 87% 29.86 in 10.0 mi North 6.9 mph - 0.00 in Rain Light Rain
9:51 AM 46.9 °F - 43.0 °F 86% 29.87 in 10.0 mi North 9.2 mph - 0.00 in Rain Light Rain
10:51 AM 46.0 °F 41.4 °F 44.1 °F 93% 29.86 in 5.0 mi North 9.2 mph - 0.10 in Rain Light Rain
11:51 AM 46.0 °F 40.6 °F 43.0 °F 89% 29.85 in 4.0 mi North 11.5 mph - 0.13 in Rain Light Rain
12:02 PM 46.4 °F 41.1 °F 42.8 °F 87% 29.84 in 9.0 mi North 11.5 mph - N/A Rain Light Rain
12:24 PM 46.9 °F - 43.0 °F 86% 29.84 in 5.0 mi North 11.5 mph 18.4 mph 0.03 in Rain Light Rain
12:51 PM 46.9 °F - 44.1 °F 90% 29.83 in 4.0 mi North 8.1 mph - 0.10 in Rain Light Rain
1:51 PM 48.0 °F - 44.1 °F 86% 29.83 in 10.0 mi North 13.8 mph - 0.03 in Rain Light Rain
2:51 PM 48.9 °F - 44.1 °F 83% 29.82 in 10.0 mi North 9.2 mph 19.6 mph 0.00 in   Overcast
3:12 PM 48.9 °F - 44.1 °F 83% 29.82 in 10.0 mi North 10.4 mph - N/A   Overcast
3:51 PM 48.9 °F - 43.0 °F 80% 29.82 in 10.0 mi North 13.8 mph 25.3 mph 0.00 in Rain Light Rain
4:37 PM 48.0 °F - 44.1 °F 86% 29.82 in 8.0 mi North 9.2 mph - 0.02 in Rain Light Rain
4:51 PM 46.9 °F - 44.1 °F 90% 29.83 in 10.0 mi North 10.4 mph - 0.02 in Rain Light Rain
5:51 PM 46.9 °F - 44.1 °F 90% 29.84 in 10.0 mi North 6.9 mph - 0.00 in   Overcast
6:51 PM 48.0 °F - 45.0 °F 89% 29.85 in 10.0 mi North 8.1 mph - N/A   Overcast
7:51 PM 48.0 °F - 45.0 °F 89% 29.86 in 8.0 mi North 8.1 mph - 0.02 in Rain Light Rain
8:44 PM 48.0 °F - 45.0 °F 89% 29.86 in 7.0 mi NNW 10.4 mph - 0.05 in Rain Light Rain
8:51 PM 48.0 °F - 45.0 °F 89% 29.86 in 7.0 mi NNW 9.2 mph - 0.06 in Rain Light Rain
9:37 PM 48.0 °F - 45.0 °F 89% 29.85 in 6.0 mi NNW 9.2 mph - 0.03 in Rain Light Rain
9:51 PM 48.0 °F - 45.0 °F 89% 29.86 in 8.0 mi NNW 9.2 mph - 0.04 in Rain Light Rain
10:33 PM 48.0 °F - 45.0 °F 89% 29.84 in 10.0 mi North 5.8 mph - 0.00 in   Overcast
10:51 PM 48.0 °F - 45.0 °F 89% 29.85 in 10.0 mi North 4.6 mph - 0.00 in   Overcast
11:05 PM 48.0 °F - 46.0 °F 93% 29.84 in 10.0 mi NNW 5.8 mph - N/A   Overcast
11:51 PM 48.0 °F - 46.0 °F 93% 29.84 in 10.0 mi North 4.6 mph - 0.00 in   Light Drizzle